Starlink 11550

operational
NORAD ID: 63052 Int'l Des: 2025-035 Owner: SPXS Country: US Constellation: starlink
LEOCIRCULAR

About Starlink 11550

Description loading...

Live Position

Loading 3D Globe...

Upcoming Passes

Altitude History

Altitude vs Time

uPlot chart will show altitude changes over time

Two-Line Element Set

1 63052U 25035A 25349.76237618 .00200720 00000-0 15269-2 0 9990
2 63052 43.0012 161.0204 0003087 273.6908 86.3607 15.70889464 48021
Epoch: Dec 15, 2025 • Age: 34 hours

Current Status

Altitude 359.5 km
Velocity 7.70 km/s
Sub-Earth Point 41.54°N, 111°E
Launch Date Feb 21, 2025
Age 0.8 years
Type internet

Technical Details

Classification Payload
Mass 960.00 kg
Dry Mass 910.00 kg
Total Mass 960.00 kg
Length 0.30 m
Diameter 4.10 m
Span 29.00 m
Shape Box + pan
Manufacturer SPXS
Bus Type Starlink V2MD
Phase Status In Orbit
Owner/State SPXS/US

Large Constellations

Loading constellations...